User: anonymous   Login
Location: Brabourne
(51.1333°N, 1.0000°E)
Time: 21:09:20
(UTC+00:00)
Language:

NOAA 16 DEB - Orbit

View from above orbital plane
View from above orbital plane
View from above satellite
View from above satellite

Ground track
Ground track

The orbit data is extracted from the following two-line orbital elements,

1 41280U 00055GG  22021.52726455  .00001180  00000-0  72951-3 0  9995
2 41280  98.7120  52.1423 0034507 106.1734 254.3237 14.06885976312176
Epoch (UTC): 21 January 2022 12:39:15
Eccentricity: 0.0034507
inclination: 98.7120°
perigee height: 845 km
apogee height: 895 km
right ascension of ascending node: 52.1423°
argument of perigee: 106.1734°
revolutions per day: 14.06885976
mean anomaly at epoch: 254.3237°
orbit number at epoch: 31217

The dashed part of the orbit path shows where the satellite is in the earth's shadow,  

DLR